Location: Olomouc
(49.5830°N, 17.2500°E)
Time: 12:10:19
(UTC+01:00)

ISS - Visible Passes

Search period start: 10 December 2019 00:00
Search period end: 20 December 2019 00:00
Orbit: 411 x 421 km, 51.6° (Epoch: 10 December)

Date Brightness Start Highest point End Pass type
(mag) Time Alt. Az. Time Alt. Az. Time Alt. Az.
10 Dec -2.3 16:50:32 10° W 16:53:42 40° SSW 16:56:52 10° SE visible
11 Dec -0.6 17:39:51 10° WSW 17:41:29 13° SW 17:43:07 10° SSW visible
12 Dec -0.8 16:50:42 10° W 16:53:12 20° SW 16:55:42 10° S visible
